TimeEDT,TemperatureF,Dew PointF,Humidity,Sea Level PressureIn,VisibilityMPH,Wind Direction,Wind SpeedMPH,Gust SpeedMPH,PrecipitationIn,Events,Conditions,WindDirDegrees,DateUTC
12:15 AM,71.6,69.8,94,30.13,9.0,Calm,Calm,-,N/A,,Clear,0,2013-06-22 04:15:00
12:35 AM,71.6,69.8,94,30.13,9.0,Calm,Calm,-,N/A,,Clear,0,2013-06-22 04:35:00
12:55 AM,71.6,69.8,94,30.12,10.0,Calm,Calm,-,N/A,,Clear,0,2013-06-22 04:55:00
1:15 AM,71.6,69.8,94,30.12,9.0,Calm,Calm,-,N/A,,Clear,0,2013-06-22 05:15:00
1:35 AM,71.6,69.8,94,30.12,9.0,Calm,Calm,-,N/A,,Clear,0,2013-06-22 05:35:00
1:55 AM,71.6,69.8,94,30.11,9.0,Calm,Calm,-,N/A,,Partly Cloudy,0,2013-06-22 05:55:00
2:15 AM,71.6,69.8,94,30.12,9.0,Calm,Calm,-,N/A,,Scattered Clouds,0,2013-06-22 06:15:00
2:35 AM,71.6,69.8,94,30.11,8.0,Calm,Calm,-,N/A,,Scattered Clouds,0,2013-06-22 06:35:00
2:55 AM,71.6,69.8,94,30.11,10.0,Calm,Calm,-,N/A,,Partly Cloudy,0,2013-06-22 06:55:00
3:15 AM,71.6,69.8,94,30.11,9.0,Calm,Calm,-,N/A,,Clear,0,2013-06-22 07:15:00
3:35 AM,71.6,69.8,94,30.10,10.0,Calm,Calm,-,N/A,,Partly Cloudy,0,2013-06-22 07:35:00
3:55 AM,71.6,69.8,94,30.10,8.0,Calm,Calm,-,N/A,,Partly Cloudy,0,2013-06-22 07:55:00
4:15 AM,71.6,69.8,94,30.10,9.0,Calm,Calm,-,N/A,,Scattered Clouds,0,2013-06-22 08:15:00
4:35 AM,71.6,69.8,94,30.10,8.0,Calm,Calm,-,N/A,,Mostly Cloudy,0,2013-06-22 08:35:00
4:55 AM,71.6,69.8,94,30.10,9.0,Calm,Calm,-,N/A,,Clear,0,2013-06-22 08:55:00
5:15 AM,71.6,69.8,94,30.11,9.0,Calm,Calm,-,N/A,,Clear,0,2013-06-22 09:15:00
5:35 AM,71.6,69.8,94,30.11,10.0,Calm,Calm,-,N/A,,Partly Cloudy,0,2013-06-22 09:35:00
5:55 AM,71.6,69.8,94,30.11,9.0,Calm,Calm,-,N/A,,Clear,0,2013-06-22 09:55:00
6:15 AM,71.6,69.8,94,30.11,10.0,Calm,Calm,-,N/A,,Clear,0,2013-06-22 10:15:00
6:35 AM,69.8,69.8,100,30.11,9.0,Calm,Calm,-,N/A,,Clear,0,2013-06-22 10:35:00
6:55 AM,71.6,69.8,94,30.11,10.0,Calm,Calm,-,N/A,,Clear,0,2013-06-22 10:55:00
7:15 AM,73.4,69.8,88,30.12,9.0,Calm,Calm,-,N/A,,Clear,0,2013-06-22 11:15:00
7:35 AM,73.4,71.6,94,30.12,10.0,Calm,Calm,-,N/A,,Clear,0,2013-06-22 11:35:00
7:55 AM,75.2,71.6,89,30.13,10.0,Calm,Calm,-,N/A,,Clear,0,2013-06-22 11:55:00
8:15 AM,77.0,73.4,89,30.13,10.0,Calm,Calm,-,N/A,,Clear,0,2013-06-22 12:15:00
8:35 AM,78.8,73.4,83,30.14,9.0,Calm,Calm,-,N/A,,Clear,0,2013-06-22 12:35:00
8:55 AM,80.6,73.4,79,30.15,9.0,Calm,Calm,-,N/A,,Clear,0,2013-06-22 12:55:00
9:15 AM,80.6,75.2,84,30.15,8.0,Calm,Calm,-,N/A,,Clear,0,2013-06-22 13:15:00
9:35 AM,82.4,75.2,79,30.15,7.0,Calm,Calm,-,N/A,,Partly Cloudy,0,2013-06-22 13:35:00
9:55 AM,82.4,73.4,74,30.15,9.0,Calm,Calm,-,N/A,,Partly Cloudy,0,2013-06-22 13:55:00
10:15 AM,84.2,73.4,70,30.15,8.0,Calm,Calm,-,N/A,,Partly Cloudy,0,2013-06-22 14:15:00
10:35 AM,84.2,73.4,70,30.15,8.0,Calm,Calm,-,N/A,,Clear,0,2013-06-22 14:35:00
10:55 AM,84.2,71.6,66,30.15,8.0,Calm,Calm,-,N/A,,Scattered Clouds,0,2013-06-22 14:55:00
11:15 AM,84.2,71.6,66,30.15,9.0,Calm,Calm,-,N/A,,Partly Cloudy,0,2013-06-22 15:15:00
11:35 AM,86.0,73.4,66,30.15,7.0,Calm,Calm,-,N/A,,Partly Cloudy,0,2013-06-22 15:35:00
11:55 AM,87.8,71.6,58,30.15,8.0,Calm,Calm,-,N/A,,Clear,0,2013-06-22 15:55:00
12:15 PM,87.8,69.8,55,30.15,8.0,SE,3.5,-,N/A,,Partly Cloudy,130,2013-06-22 16:15:00
12:35 PM,84.2,73.4,70,30.15,8.0,ENE,10.4,-,N/A,,Mostly Cloudy,70,2013-06-22 16:35:00
12:55 PM,84.2,73.4,70,30.14,8.0,East,3.5,-,N/A,,Mostly Cloudy,100,2013-06-22 16:55:00
1:15 PM,87.8,73.4,62,30.14,8.0,ESE,4.6,-,N/A,,Partly Cloudy,120,2013-06-22 17:15:00
1:35 PM,84.2,71.6,66,30.14,8.0,ESE,8.1,16.1,N/A,,Scattered Clouds,120,2013-06-22 17:35:00
1:55 PM,86.0,69.8,58,30.15,7.0,NW,6.9,-,N/A,,Scattered Clouds,320,2013-06-22 17:55:00
2:15 PM,82.4,71.6,70,30.13,9.0,NNW,9.2,-,N/A,,Partly Cloudy,340,2013-06-22 18:15:00
2:35 PM,82.4,73.4,74,30.13,5.0,NE,13.8,-,N/A,,Scattered Clouds,40,2013-06-22 18:35:00
2:55 PM,78.8,73.4,83,30.14,2.5,Calm,Calm,-,N/A,,Mostly Cloudy,0,2013-06-22 18:55:00
3:15 PM,75.2,73.4,94,30.14,0.8,Calm,Calm,-,N/A,,Overcast,0,2013-06-22 19:15:00
3:35 PM,73.4,73.4,100,30.13,2.0,Calm,Calm,-,N/A,,Overcast,0,2013-06-22 19:35:00
3:55 PM,75.2,71.6,89,30.13,5.0,Calm,Calm,-,N/A,,Partly Cloudy,0,2013-06-22 19:55:00
4:15 PM,75.2,73.4,94,30.12,8.0,Calm,Calm,-,N/A,,Clear,0,2013-06-22 20:15:00
4:35 PM,75.2,73.4,94,30.12,8.0,Calm,Calm,-,N/A,,Clear,0,2013-06-22 20:35:00
4:55 PM,77.0,75.2,94,30.12,8.0,Calm,Calm,-,N/A,,Clear,0,2013-06-22 20:55:00
5:15 PM,77.0,75.2,94,30.11,7.0,Calm,Calm,-,N/A,,Clear,0,2013-06-22 21:15:00
5:35 PM,78.8,75.2,89,30.10,7.0,Calm,Calm,-,N/A,,Clear,0,2013-06-22 21:35:00
5:55 PM,78.8,75.2,89,30.10,8.0,Calm,Calm,-,N/A,,Clear,0,2013-06-22 21:55:00
6:15 PM,78.8,75.2,89,30.10,7.0,Calm,Calm,-,N/A,,Clear,0,2013-06-22 22:15:00
6:35 PM,78.8,75.2,89,30.10,7.0,Calm,Calm,-,N/A,,Clear,0,2013-06-22 22:35:00
6:55 PM,78.8,75.2,89,30.09,8.0,Calm,Calm,-,N/A,,Clear,0,2013-06-22 22:55:00
7:15 PM,78.8,75.2,89,30.10,7.0,Calm,Calm,-,N/A,,Clear,0,2013-06-22 23:15:00
7:35 PM,78.8,75.2,89,30.11,7.0,Calm,Calm,-,N/A,,Clear,0,2013-06-22 23:35:00
7:55 PM,78.8,75.2,89,30.11,8.0,Calm,Calm,-,N/A,,Clear,0,2013-06-22 23:55:00
8:15 PM,78.8,75.2,89,30.12,7.0,Calm,Calm,-,N/A,,Clear,0,2013-06-23 00:15:00
8:35 PM,78.8,75.2,89,30.11,8.0,Calm,Calm,-,N/A,,Clear,0,2013-06-23 00:35:00
8:55 PM,77.0,75.2,94,30.11,7.0,Calm,Calm,-,N/A,,Clear,0,2013-06-23 00:55:00
9:15 PM,77.0,75.2,94,30.12,7.0,Calm,Calm,-,N/A,,Clear,0,2013-06-23 01:15:00
9:35 PM,77.0,75.2,94,30.12,7.0,Calm,Calm,-,N/A,,Clear,0,2013-06-23 01:35:00
9:55 PM,75.2,75.2,100,30.13,7.0,Calm,Calm,-,N/A,,Clear,0,2013-06-23 01:55:00
10:15 PM,75.2,73.4,94,30.13,7.0,Calm,Calm,-,N/A,,Clear,0,2013-06-23 02:15:00
10:35 PM,75.2,73.4,94,30.13,7.0,Calm,Calm,-,N/A,,Clear,0,2013-06-23 02:35:00
10:55 PM,75.2,73.4,94,30.13,7.0,Calm,Calm,-,N/A,,Clear,0,2013-06-23 02:55:00
11:15 PM,75.2,73.4,94,30.14,8.0,Calm,Calm,-,N/A,,Clear,0,2013-06-23 03:15:00
11:35 PM,75.2,73.4,94,30.14,7.0,Calm,Calm,-,N/A,,Clear,0,2013-06-23 03:35:00
11:55 PM,75.2,73.4,94,30.13,7.0,Calm,Calm,-,N/A,,Clear,0,2013-06-23 03:55:00